Regional Weather Roundup
Issued by NWS

Home | Current Version | Previous Version | Text Only | Print | Product List | Glossary On
Versions: 1 2 3 4 5 6 7 8 9 10 11 12 13 14 15 16 17 18 19 20 21 22 23 24 25 26 27 28 29 30 31 32 33 34 35 36 37 38 39 40 41 42 43 44 45 46 47 48 49 50
000
ASUS45 KTFX 291510
RWRMT
MONTANA REGIONAL WEATHER ROUNDUP
NATIONAL WEATHER SERVICE GREAT FALLS MT
900 AM MDT THU SEP 29 2016

NOTE: "FAIR" INDICATES FEW OR NO CLOUDS BELOW 12000 FEET WITH NO
SIGNIFICANT WEATHER AND/OR OBSTRUCTIONS TO VISIBILITY.

MTZ001>007-043-291600-
WEST OF THE DIVIDE

CITY           SKY/WX    TMP DP  RH WIND       PRES   REMARKS
KALISPELL      MOSUNNY   54  44  69 N5        30.05S
MISSOULA       SUNNY     52  46  80 CALM      30.09S
BUTTE          CLOUDY    43  38  82 CALM      30.21F
MULLAN PASS    MOSUNNY   57  39  51 S9        30.12S
ANACONDA         N/A     55  36  47 SW5       30.17S
DEER LODGE       N/A     55  39  54 CALM      30.18S
EUREKA           N/A     46  43  87 CALM      30.09F
HAMILTON         N/A     52  41  66 CALM      30.09S
LIBBY            N/A     46  45  93 CALM      30.05S
PLAINS           N/A     46  42  86 CALM      30.05R
RONAN            N/A     49  46  89 CALM      30.09S
$$

MTZ008-052>055-291600-
SOUTHWEST MONTANA

CITY           SKY/WX    TMP DP  RH WIND       PRES   REMARKS
BOZEMAN        MOSUNNY   46  43  89 N5        30.19S
DILLON         CLOUDY    47  37  68 SW5       30.21S
W YELLOWSTONE  LGT RAIN  41  37  87 CALM      30.35F
ENNIS          SUNNY     55  43  62 SE7       30.27S
THREE FORKS      N/A     40  21  46 CALM      30.16S VSB 0
TWIN BRIDGES     N/A     45  36  70 E2        30.17S
$$

MTZ009-010-012-014-046-048-049-054-291600-
EAST SLOPES AND CENTRAL MONTANA

CITY           SKY/WX    TMP DP  RH WIND       PRES   REMARKS
CUT BANK       SUNNY     46  43  89 NW5       30.11S
GREAT FALLS    MOSUNNY   52  47  83 CALM      30.10S
MALMSTROM AFB  SUNNY     49  46  92 E2        30.10S
HELENA         SUNNY     51  43  74 CALM      30.16S
AUGUSTA        PTSUNNY   49  45  84 CALM      30.11S
BOWMANS CRNR   PTSUNNY   56  46  70 S18       30.08S
CHOTEAU          N/A     50  46  87 CALM      30.12S
CONRAD           N/A     46  46 100 CALM      30.12R
FAIRFIELD        N/A     47  45  90 NW5       30.10S
POWER          PTSUNNY   53  48  82 N2        30.09S
RAYNESFORD       N/A     51  45  80 E9        30.11S
$$

MTZ011-013-016-021-045-047-050-051-291600-
NORTH CENTRAL MONTANA

CITY           SKY/WX    TMP DP  RH WIND       PRES   REMARKS
HAVRE          FOG       45  45 100 CALM      30.10S VSB 1
LEWISTOWN      SUNNY     54  47  77 SE6       30.13S
N BAR RANCH      N/A     63  45  51 CALM      30.16S
CHINOOK          N/A     45  45 100 CALM      30.09F VSB 0
DENTON           N/A     51  46  82 S3        30.08S
GEYSER         PTSUNNY   49  45  84 CALM      30.11S
GRASS RANGE      N/A     61  50  66 S8        30.09S
JUDITH GAP       N/A     56  51  82 S12       30.16S
ROY              N/A     60  51  72 MISG      30.09F
STANFORD         N/A     58  48  69 SW1       30.12F
WINIFRED         N/A     56  51  83 MISG      30.10S
$$

MTZ017>020-022>027-061-062-291600-
NORTHEAST MONTANA

CITY           SKY/WX    TMP DP  RH WIND       PRES   REMARKS
GLASGOW        SUNNY     60  43  53 SE13      30.12F
JORDAN           N/A     61  47  59 SE9       30.12S
SIDNEY         SUNNY     57  44  62 CALM      30.23F
WOLF POINT     SUNNY     59  42  53 E8        30.16F
PLENTYWOOD       N/A     57  39  51 SE16      30.21S
POPLAR           N/A     61  41  48 E9        30.17F
SCOBEY           N/A     59  38  45 SE9       30.15S
$$

MTZ028>42-056>058-291600-
SOUTHCENTRAL AND SOUTHEAST MONTANA

CITY           SKY/WX    TMP DP  RH WIND       PRES   REMARKS
BAKER          SUNNY     56  39  53 SE23G32   30.24S
BILLINGS       MOSUNNY   52  47  83 S9        30.14F
LIVINGSTON     MOSUNNY   49  45  86 N12       30.20R
MILES CITY     SUNNY     61  43  51 SE14      30.15S
BIG TIMBER     SUNNY     50  48  93 NW5       30.21S
EKALAKA          N/A     62  40  44 E12       30.19S
FORSYTH          N/A     59  48  67 E7        30.12F
HARLOWTON        N/A     49  45  85 W12       30.16F
LAUREL           N/A     53  48  83 SW2       30.12F
ROUNDUP          N/A     53  46  77 S10       30.04S
$$

REGIONAL REPORTS...DAKOTAS

CITY           SKY/WX    TMP DP  RH WIND       PRES   REMARKS
WILLISTON      SUNNY     57  44  62 SE9       30.26S
MINOT          SUNNY     54  47  77 SE10      30.34S
DICKINSON      SUNNY     53  44  71 SE13      30.28F
BEACH            N/A     57  39  51 SE17G24   30.27S
CROSBY           N/A     57  46  67 S13       30.27F
WATFORD CITY     N/A     54  45  71 SE10      30.28S
BISMARCK       SUNNY     51  47  86 SE9       30.40S
GRAND FORKS    CLOUDY    54  47  77 S9        30.48R
FARGO          CLOUDY    57  47  69 SE3       30.49S
BUFFALO SD       N/A     56  41  57 SE15      30.22F
RAPID CITY     SUNNY     52  39  61 SE10      30.31S
$$

REGIONAL REPORTS...WYOMING/IDAHO/WASHINGTON

CITY           SKY/WX    TMP DP  RH WIND       PRES   REMARKS
GILLETTE       SUNNY     56  43  61 S23       30.26R
SHERIDAN       SUNNY     58  43  57 N3        30.18F
BUFFALO WY     SUNNY     61  41  47 S10       30.24S
CODY           CLOUDY    55  39  54 S3        30.24F
IDAHO FALLS    CLOUDY    56  51  84 CALM      30.23R
SALMON         SUNNY     45  39  81 CALM      30.18S
BOISE          MOSUNNY   61  41  47 N3        30.00R
SPOKANE        MOSUNNY   54  43  66 N3        29.98R
$$

REGIONAL REPORTS...ALBERTA

CITY           SKY/WX    TMP DP  RH WIND       PRES   REMARKS
EDMONTON       MOSUNNY   34  32  93 CALM      30.20S
CALGARY        MOSUNNY   41  37  87 N3        30.15R
LETHBRIDGE     MOSUNNY   43  39  87 W10       30.13S
MEDICINE HAT   MOSUNNY   45  41  87 N5        30.12S
WATERTON GATE    N/A     41  39  93 NW2         N/A
CARDSTON         N/A     37  37 100 W1          N/A
MILK RIVER       N/A     43  41  93 NW8         N/A
ONEFOUR          N/A     55  48  76 NE6         N/A
$$

REGIONAL REPORTS...SASKATCHEWAN

CITY           SKY/WX    TMP DP  RH WIND       PRES   REMARKS
SWIFT CURRENT  SUNNY     54  50  87 SE7       30.12R
REGINA         MOSUNNY   55  43  62 SE17      30.19F
SASKATOON      PTSUNNY   46  46 100 N5        30.22R
CYPRESS HILLS    N/A     57  50  77 CALM        N/A
VAL MARIE        N/A     57  52  82 E2          N/A
ROCKGLEN         N/A     55  41  58 S16         N/A
ASSINIBOIA       N/A     41  37  87 N2          N/A
$$



USA.gov is the U.S. government's official web portal to all federal, state and local government web resources and services.